This is the latest recevied weather packets stored in our database for station/object KS5S. If no packets are shown the sender has not sent any weather packets the latest 1 day(s).
| Time | Temp. | Humidity | Pressure | Rain* | Wind** | Luminosity | Snow |
|---|---|---|---|---|---|---|---|
| 1778051229 | 17.78° C | 81% | 1007.3 hPa | 0 mm | 3.58 m/s, 21° | 0 W/m² | - |
| 1778050926 | 17.78° C | 81% | 1007.3 hPa | 0 mm | 1.79 m/s, 36° | 0 W/m² | - |
| 1778050624 | 17.78° C | 81% | 1007.5 hPa | 0 mm | 1.79 m/s, 29° | 0 W/m² | - |
| 1778050321 | 17.78° C | 80% | 1007.3 hPa | 0 mm | 2.24 m/s, 17° | 0 W/m² | - |
| 1778050017 | 17.78° C | 81% | 1007.3 hPa | 0 mm | 2.24 m/s, 15° | 0 W/m² | - |
| 1778049713 | 17.78° C | 80% | 1007.3 hPa | 0 mm | 1.79 m/s, 10° | 0 W/m² | - |
| 1778049411 | 18.33° C | 81% | 1007.4 hPa | 0 mm | 1.34 m/s, 11° | 0 W/m² | - |
| 1778049108 | 18.33° C | 80% | 1007.5 hPa | 0 mm | 0.89 m/s, 4° | 0 W/m² | - |
| 1778048807 | 18.33° C | 80% | 1007.1 hPa | 0 mm | 1.34 m/s, 3° | 0 W/m² | - |
| 1778048503 | 18.33° C | 80% | 1007.1 hPa | 0 mm | 2.24 m/s, 6° | 0 W/m² | - |
| 1778048199 | 18.33° C | 79% | 1007.3 hPa | 0 mm | 2.24 m/s, 347° | 0 W/m² | - |
| 1778047897 | 18.89° C | 79% | 1007.2 hPa | 0 mm | 2.68 m/s, 1° | 0 W/m² | - |
| 1778047595 | 18.89° C | 79% | 1007.1 hPa | 0 mm | 2.24 m/s, 10° | 0 W/m² | - |
| 1778047292 | 18.89° C | 79% | 1007.3 hPa | 0 mm | 2.24 m/s, 13° | 0 W/m² | - |
| 1778046989 | 18.89° C | 78% | 1007.1 hPa | 0 mm | 3.58 m/s, 5° | 0 W/m² | - |
| 1778046686 | 18.89° C | 79% | 1007.2 hPa | 0 mm | 1.79 m/s, 5° | 0 W/m² | - |
| 1778046383 | 18.89° C | 78% | 1007.3 hPa | 0 mm | 5.81 m/s, 5° | 0 W/m² | - |
| 1778046079 | 19.44° C | 78% | 1007.1 hPa | 0 mm | 1.79 m/s, 5° | 0 W/m² | - |
| 1778045777 | 19.44° C | 77% | 1007.4 hPa | 0 mm | 2.24 m/s, 11° | 0 W/m² | - |
| 1778045475 | 19.44° C | 77% | 1007.2 hPa | 0 mm | 2.68 m/s, 3° | 0 W/m² | - |
| 1778045173 | 19.44° C | 78% | 1007.1 hPa | 0 mm | 1.79 m/s, 12° | 0 W/m² | - |
| 1778044871 | 20° C | 78% | 1007 hPa | 0 mm | 1.34 m/s, 5° | 0 W/m² | - |
| 1778044567 | 20° C | 78% | 1007.1 hPa | 0 mm | 2.24 m/s, 19° | 0 W/m² | - |
| 1778044264 | 20° C | 77% | 1007 hPa | 0 mm | 3.58 m/s, 1° | 0 W/m² | - |
| 1778043962 | 20° C | 77% | 1007 hPa | 0 mm | 1.34 m/s, 12° | 0 W/m² | - |
* Rain latest hour (hover to see other rain measurements)
** Current wind speed in m/s (hover to see current wind gust speed)